TimeEET,TemperatureF,Dew PointF,Humidity,Sea Level PressureIn,VisibilityMPH,Wind Direction,Wind SpeedMPH,Gust SpeedMPH,PrecipitationIn,Events,Conditions,WindDirDegrees,DateUTC
12:00 AM,73.4,46.4,38,29.95,-9999.0,NE,11.5,-,N/A,,Clear,40,2013-04-30 22:00:00
12:30 AM,73.4,46.4,38,29.95,-9999.0,NE,11.5,-,N/A,,Clear,40,2013-04-30 22:30:00
1:00 AM,69.8,46.4,43,29.92,-9999.0,NE,6.9,-,N/A,,Clear,40,2013-04-30 23:00:00
1:30 AM,69.8,44.6,40,29.92,-9999.0,NE,6.9,-,N/A,,Clear,40,2013-04-30 23:30:00
2:00 AM,69,46,33,29.93,6,NE,6.9,,,,,50,2013-05-01 00:00:00
2:00 AM,69.8,46.4,43,29.92,-9999.0,NE,6.9,-,N/A,,Clear,50,2013-05-01 00:00:00
2:30 AM,68.0,46.4,46,29.92,-9999.0,ENE,6.9,-,N/A,,Clear,60,2013-05-01 00:30:00
3:00 AM,68.0,46.4,46,29.92,-9999.0,NE,5.8,-,N/A,,Clear,50,2013-05-01 01:00:00
3:30 AM,68.0,46.4,46,29.92,-9999.0,ENE,5.8,-,N/A,,Clear,60,2013-05-01 01:30:00
4:00 AM,66.2,46.4,49,29.89,-9999.0,NE,4.6,-,N/A,,Clear,50,2013-05-01 02:00:00
4:30 AM,66.2,46.4,49,29.89,-9999.0,NNE,4.6,-,N/A,,Clear,30,2013-05-01 02:30:00
5:00 AM,66.2,44.6,46,29.89,3.7,NE,3.5,-,N/A,,Unknown,50,2013-05-01 03:00:00
5:30 AM,66.2,50.0,56,29.92,2.5,North,4.6,-,N/A,,Haze,10,2013-05-01 03:30:00
6:00 AM,66.2,50.0,56,29.92,2.5,NE,3.5,-,N/A,,Haze,50,2013-05-01 04:00:00
6:30 AM,68.0,51.8,56,29.92,2.5,NE,3.5,-,N/A,,Haze,40,2013-05-01 04:30:00
7:00 AM,69.8,55.4,60,29.92,1.2,North,4.6,-,N/A,,Haze,360,2013-05-01 05:00:00
7:30 AM,71.6,57.2,60,29.92,1.2,North,4.6,-,N/A,,Haze,350,2013-05-01 05:30:00
8:00 AM,71,56,50,29.93,1,North,4.6,,,,Haze,350,2013-05-01 06:00:00
8:00 AM,71.6,57.2,60,29.92,1.2,North,4.6,-,N/A,,Haze,350,2013-05-01 06:00:00
8:30 AM,73.4,55.4,53,29.92,1.2,NNE,4.6,-,N/A,,Haze,30,2013-05-01 06:30:00
9:00 AM,77.0,53.6,44,29.92,1.2,North,4.6,-,N/A,,Haze,10,2013-05-01 07:00:00
9:30 AM,78.8,53.6,42,29.92,1.2,NNW,5.8,-,N/A,,Haze,340,2013-05-01 07:30:00
10:00 AM,80.6,50.0,34,29.92,1.2,North,8.1,-,N/A,,Haze,350,2013-05-01 08:00:00
10:30 AM,82.4,46.4,28,29.89,1.9,North,8.1,-,N/A,,Haze,350,2013-05-01 08:30:00
11:00 AM,84.2,46.4,27,29.89,2.5,North,8.1,-,N/A,,Haze,350,2013-05-01 09:00:00
11:30 AM,86.0,41.0,20,29.89,3.7,North,10.4,-,N/A,,Unknown,360,2013-05-01 09:30:00
12:00 PM,87.8,41.0,19,29.89,3.7,North,11.5,-,N/A,,Unknown,360,2013-05-01 10:00:00
12:30 PM,89.6,41.0,18,29.86,3.7,North,11.5,-,N/A,,Unknown,360,2013-05-01 10:30:00
1:00 PM,91.4,39.2,16,29.86,3.7,North,11.5,-,N/A,,Unknown,10,2013-05-01 11:00:00
1:30 PM,91.4,39.2,16,29.83,3.7,North,10.4,-,N/A,,Unknown,10,2013-05-01 11:30:00
2:00 PM,92,36,7,29.83,6,North,11.5,,,,,0,2013-05-01 12:00:00
2:00 PM,93.2,35.6,13,29.83,-9999.0,North,11.5,-,N/A,,Clear,360,2013-05-01 12:00:00
2:30 PM,93.2,35.6,13,29.83,-9999.0,NNE,11.5,-,N/A,,Clear,20,2013-05-01 12:30:00
3:00 PM,93.2,39.2,15,29.80,-9999.0,North,12.7,-,N/A,,Clear,10,2013-05-01 13:00:00
3:30 PM,93.2,37.4,14,29.80,-9999.0,North,12.7,-,N/A,,Clear,10,2013-05-01 13:30:00
4:00 PM,93.2,37.4,14,29.80,-9999.0,North,13.8,-,N/A,,Clear,350,2013-05-01 14:00:00
4:30 PM,93.2,37.4,14,29.80,-9999.0,North,12.7,-,N/A,,Clear,360,2013-05-01 14:30:00
5:00 PM,93.2,41.0,16,29.77,-9999.0,North,15.0,-,N/A,,Clear,360,2013-05-01 15:00:00
5:30 PM,91.4,41.0,17,29.80,-9999.0,NNW,16.1,-,N/A,,Clear,340,2013-05-01 15:30:00
6:00 PM,89.6,46.4,22,29.80,-9999.0,North,16.1,-,N/A,,Clear,350,2013-05-01 16:00:00
6:30 PM,86.0,46.4,25,29.80,-9999.0,NNW,18.4,-,N/A,,Clear,340,2013-05-01 16:30:00
7:00 PM,86.0,48.2,27,29.83,-9999.0,NNW,16.1,-,N/A,,Clear,340,2013-05-01 17:00:00
7:30 PM,84.2,50.0,30,29.83,-9999.0,NNW,13.8,-,N/A,,Clear,340,2013-05-01 17:30:00
8:00 PM,82,52,25,29.84,6,NNW,13.8,,,,,340,2013-05-01 18:00:00
8:00 PM,82.4,51.8,35,29.83,-9999.0,NNW,13.8,-,N/A,,Clear,340,2013-05-01 18:00:00
8:30 PM,80.6,50.0,34,29.86,-9999.0,North,13.8,-,N/A,,Clear,350,2013-05-01 18:30:00
9:00 PM,78.8,51.8,39,29.86,-9999.0,North,12.7,-,N/A,,Clear,360,2013-05-01 19:00:00
9:30 PM,78.8,51.8,39,29.86,-9999.0,North,12.7,-,N/A,,Clear,350,2013-05-01 19:30:00
10:00 PM,77.0,51.8,41,29.86,-9999.0,North,11.5,-,N/A,,Clear,10,2013-05-01 20:00:00
10:30 PM,75.2,53.6,47,29.86,-9999.0,North,13.8,-,N/A,,Clear,350,2013-05-01 20:30:00
11:00 PM,75.2,53.6,47,29.86,-9999.0,North,9.2,-,N/A,,Clear,360,2013-05-01 21:00:00
11:30 PM,73.4,48.2,41,29.86,-9999.0,NE,9.2,-,N/A,,Clear,40,2013-05-01 21:30:00